[[{"header":{"parameterUnit":"m.s-1","parameterCategory":1,"la1":30.2991,"la2":30.254,"lo1":-89.0895,"lo2":-89.0444,"dy":0.0017,"dx":0.0017,"nx":28,"ny":28,"refTime":"2025-06-08T21:00:00:Z","depth":0,"parameterNumber":2,"parameterNumberName":"U-component_of_WINDS"},"data":[0,0,0,0,0,0,0,0,0,0,0,0,0,0,0,0,0,0,0,0,0,0,0,0,0,0,0,0,0,0,0,0,0,0,0,0,0,0,0,0,0,0,0,0,0,0,0,0,0,0,0,0,0,0,0,0,0,0,4.4761,4.4761,0,4.4789,4.4789,4.4789,4.4624,4.4619,4.4614,4.461,4.4641,4.4646,4.4651,0,0,0,0,0,0,0,0,0,0,0,0,0,4.4566,4.4571,4.4761,4.4761,4.4762,4.4789,4.4789,4.4789,4.4624,4.4619,4.4613,4.4608,4.4639,4.4645,4.4651,0,0,0,0,0,0,0,0,0,0,0,0,0,4.4628,4.4572,4.4761,4.4683,4.4676,4.4789,4.4789,4.479,4.4626,4.4619,4.4611,4.4605,4.4637,4.4645,4.4652,4.4842,0,0,4.4676,4.468,0,0,0,0,0,0,0,0,4.4625,4.4636,4.4694,4.4688,4.4681,4.4695,4.4731,4.4807,4.4627,4.4645,4.461,4.4601,4.4665,4.467,4.4691,4.4844,4.4845,4.4677,4.4682,4.4685,4.4687,0,0,0,0,0,0,0,4.4621,4.4634,4.4772,4.4695,4.4687,4.4646,4.4647,4.4745,4.4694,4.4643,4.4631,4.4636,4.466,4.4684,4.469,4.4846,4.4677,4.4684,4.4689,4.4692,4.5153,4.516,0,0,0,0,0,0,4.4627,4.4631,4.4771,4.4773,4.4635,4.4656,4.4657,4.4698,4.4693,4.4685,4.4642,4.4628,4.4674,4.4681,4.4691,4.4909,4.4685,4.4692,4.4697,4.5145,4.5154,4.5162,0,0,0,0,0,0,4.4623,4.4641,4.477,4.4699,4.4712,4.4667,4.4714,4.4702,4.4725,4.4692,4.4683,4.4676,4.4668,4.468,4.4805,4.4908,4.4696,4.4703,4.5136,4.5148,4.5158,4.5351,0,0,0,0,0,0,4.4619,4.4641,4.4712,4.4702,4.4716,4.4884,4.4721,4.4708,4.4739,4.4721,4.4721,4.4714,4.4664,4.4794,4.4813,4.4915,4.4709,4.5127,4.5141,4.5155,4.5335,4.5368,4.5395,0,0,0,0,0,4.4612,4.4767,4.4717,4.4735,4.4805,4.489,4.4899,4.4837,4.4748,4.4819,4.4798,4.4714,4.4895,4.4808,4.4828,4.4934,4.512,4.5137,4.5154,4.5322,4.5361,4.5395,0,0,0,0,0,0,4.4792,4.4764,4.4708,4.4864,4.4881,4.4862,4.495,4.4881,4.4924,4.4906,4.4828,4.4829,4.4967,4.4964,4.4868,4.5116,4.4992,4.5014,4.5113,4.515,4.518,4.5176,4.4716,0,0,0,0,0,4.485,4.4921,4.4893,4.5033,4.5044,4.4997,4.5032,4.4982,4.4996,4.5003,4.499,4.5008,4.5068,4.511,4.5164,4.5335,4.5331,4.5418,4.5448,4.5473,4.5491,4.5578,4.5616,4.5218,4.5218,4.5218,0,0,4.497,4.4964,4.5014,4.5069,4.5076,4.5151,4.5003,4.509,4.5144,4.5016,4.5132,4.5124,4.5139,4.5287,4.5352,4.5288,4.5601,4.5495,4.5515,4.5519,4.56,4.5637,4.5671,4.523,4.5228,4.5226,0,0,4.5226,4.523,4.5345,4.5355,4.5367,4.5334,4.5362,4.5354,4.5343,4.5458,4.5362,4.5427,4.5534,4.5546,4.5567,4.5828,4.5751,4.5848,4.6003,4.6089,4.612,4.6148,4.6237,4.627,4.5867,4.5868,4.5868,0,4.5374,4.5482,4.5414,4.5505,4.5531,4.5418,4.5533,4.5547,4.5577,4.5598,4.5527,4.5655,4.5658,4.5806,4.5869,4.5891,4.5919,4.5846,4.6121,4.6148,4.6173,4.6257,4.6291,4.5879,4.5878,4.5877,4.5876,0,4.5661,4.5738,4.583,4.5859,4.5897,4.6001,4.5947,4.5993,4.5941,4.5915,4.6033,4.6032,4.6082,4.6114,4.6065,4.6255,4.6215,4.6135,4.6007,4.6223,4.63,4.6332,4.5895,4.5891,4.5888,4.5885,0,0,4.603,4.6019,4.6054,4.6064,4.6069,4.6127,4.6225,4.6273,4.6312,4.6338,4.6416,4.6508,4.6433,4.6457,4.6408,4.6484,4.6686,4.6393,4.6392,4.6444,4.6891,4.6948,4.6987,4.6637,4.6643,4.6648,4.6888,0,4.6277,4.6442,4.6382,4.6551,4.662,4.6513,4.6598,4.6611,4.659,4.6645,4.6622,4.6687,4.6585,4.6598,4.6668,4.6647,4.6774,4.6629,4.6707,4.6711,4.6702,4.7028,4.709,4.7317,4.6919,4.6924,4.6928,0,4.6587,4.6621,4.6797,4.6787,4.6813,4.6891,4.6928,4.6983,4.6994,4.6974,4.7,4.6935,4.7029,4.6905,4.7034,4.6936,4.6965,4.696,4.6967,4.6968,4.6829,4.7035,4.7388,4.7421,4.6975,4.6972,4.6968,0,4.6833,4.6924,4.7039,4.7053,4.7045,4.7101,4.7101,4.7105,4.7137,4.7171,4.719,4.7236,4.726,4.7296,4.7245,4.716,4.738,4.7252,4.7363,4.7365,4.7411,4.7408,4.777,4.7438,4.7437,4.7437,4.7436,0,4.7112,4.7223,4.7149,4.722,4.734,4.7271,4.7392,4.738,4.7385,4.7451,4.7364,4.7428,4.7358,4.7415,4.7377,4.7487,4.75,4.7484,4.7472,4.749,4.7491,4.7504,4.7486,4.7446,4.7444,4.7442,4.744,0,4.7406,4.7362,4.748,4.7463,4.7461,4.755,4.7535,4.76,4.7573,4.7657,4.7673,4.7631,4.7694,4.7647,4.7711,4.7684,4.7828,4.7796,4.7823,4.7813,4.7925,4.7914,4.8305,4.8352,4.7994,4.7997,4.8,0,4.7585,4.7667,4.7658,4.7695,4.77,4.7762,4.7793,4.7729,4.7765,4.7783,4.7845,4.7901,4.7941,4.8047,4.8022,4.8069,4.8034,4.8168,4.8041,4.8055,4.8031,4.8025,4.8031,4.8193,4.8197,4.8201,4.8203,0,4.7907,4.788,4.7928,4.7968,4.8007,4.8036,4.8058,4.8094,4.8029,4.8074,4.8136,4.8167,4.823,4.8285,4.8323,4.8323,4.8252,4.8244,4.8272,4.8289,4.83,4.8291,4.7889,4.8235,4.8232,4.8229,4.8228,4.8226,4.8145,4.8212,4.8215,4.827,4.828,4.8302,4.836,4.834,4.8391,4.8435,4.8396,4.847,4.8477,4.8521,4.8529,4.8586,4.8531,4.8572,4.8581,4.8591,4.8605,4.8294,4.8594,4.8593,4.8592,4.8591,4.859,0,4.8458,4.8455,4.8507,4.8539,4.8582,4.8512,4.8532,4.8573,4.8639,4.8652,4.8693,4.8763,4.8816,4.8796,4.8842,4.8891,4.886,4.8905,4.8898,4.8899,4.8654,4.8624,4.8929,4.8929,4.8929,4.8929,4.8929,4.8929,4.8626,4.8733,4.8707,4.8818,4.8814,4.8885,4.8902,4.8921,4.893,4.9013,4.9055,4.9041,4.904,4.9085,4.913,4.9123,4.9142,4.9199,4.9179,4.895,4.8917,4.8885,4.8855,4.9204,4.9205,4.9418,4.942,4.9422]},{"header":{"parameterUnit":"m.s-1","parameterCategory":1,"la1":30.2991,"la2":30.254,"lo1":-89.0895,"lo2":-89.0444,"dy":0.0017,"dx":0.0017,"nx":28,"ny":28,"refTime":"2025-06-08T21:00:00:Z","depth":0,"parameterNumber":3,"parameterNumberName":"V-component_of_WINDS"},"data":[0,0,0,0,0,0,0,0,0,0,0,0,0,0,0,0,0,0,0,0,0,0,0,0,0,0,0,0,0,0,0,0,0,0,0,0,0,0,0,0,0,0,0,0,0,0,0,0,0,0,0,0,0,0,0,0,0,0,2.0824,2.0825,0,2.0917,2.0918,2.0919,2.0889,2.0887,2.0885,2.0883,2.0976,2.098,2.0985,0,0,0,0,0,0,0,0,0,0,0,0,0,2.0618,2.0622,2.0824,2.0825,2.0826,2.0917,2.0918,2.0919,2.0889,2.0887,2.0885,2.0882,2.0975,2.098,2.0985,0,0,0,0,0,0,0,0,0,0,0,0,0,2.0708,2.0623,2.0824,2.0822,2.0823,2.0917,2.0918,2.092,2.089,2.0887,2.0884,2.0881,2.0973,2.0979,2.0986,2.1085,0,0,2.1006,2.1008,0,0,0,0,0,0,0,0,2.0703,2.0716,2.0821,2.0823,2.0824,2.0888,2.0879,2.0975,2.0891,2.0865,2.0883,2.088,2.0949,2.0957,2.0981,2.109,2.1094,2.1006,2.101,2.1013,2.1015,0,0,0,0,0,0,0,2.0697,2.0712,2.0861,2.0823,2.0824,2.0816,2.0826,2.0897,2.0922,2.0867,2.0865,2.0876,2.0949,2.0975,2.0983,2.1095,2.1006,2.1012,2.1016,2.1018,2.1287,2.129,0,0,0,0,0,0,2.069,2.0707,2.0858,2.0863,2.0755,2.0822,2.0833,2.0871,2.0922,2.0926,2.0879,2.0874,2.0966,2.0976,2.0986,2.1105,2.1013,2.1019,2.1023,2.1284,2.1288,2.1292,0,0,0,0,0,0,2.0686,2.0704,2.0854,2.0785,2.0803,2.0829,2.0871,2.0874,2.09,2.0931,2.0935,2.0901,2.0964,2.0977,2.1061,2.1108,2.1022,2.1028,2.128,2.1285,2.129,2.1343,0,0,0,0,0,0,2.068,2.0703,2.0742,2.0786,2.0807,2.0928,2.0874,2.0878,2.0911,2.0907,2.0952,2.0957,2.0962,2.1051,2.1067,2.1115,2.1033,2.1276,2.1282,2.1288,2.1337,2.1349,2.136,0,0,0,0,0,2.0673,2.0753,2.0744,2.0762,2.0856,2.0931,2.0943,2.0948,2.0915,2.0954,2.0973,2.0956,2.11,2.106,2.1078,2.1128,2.1273,2.1281,2.1288,2.1332,2.1347,2.1359,0,0,0,0,0,0,2.0714,2.0759,2.0749,2.0846,2.0885,2.0925,2.0975,2.0963,2.1011,2.1005,2.1008,2.1019,2.1104,2.1125,2.1079,2.1226,2.1182,2.1193,2.121,2.1224,2.1235,2.1227,2.1038,0,0,0,0,0,2.0734,2.0792,2.0828,2.091,2.093,2.0949,2.0981,2.0982,2.1022,2.1038,2.1063,2.1102,2.1155,2.1191,2.1242,2.134,2.1349,2.1384,2.1395,2.1404,2.1413,2.1465,2.148,2.1316,2.1316,2.1315,0,0,2.0777,2.0808,2.0844,2.0919,2.0949,2.1007,2.0963,2.1027,2.1069,2.1047,2.1127,2.1147,2.119,2.1281,2.1322,2.13,2.1461,2.1413,2.142,2.1425,2.1474,2.1489,2.1503,2.1321,2.132,2.1319,0,0,2.0883,2.0914,2.0985,2.1016,2.1061,2.1074,2.1091,2.1133,2.1145,2.1226,2.121,2.126,2.1353,2.1384,2.1412,2.1529,2.1513,2.1545,2.1603,2.1653,2.1666,2.1678,2.1718,2.1732,2.1555,2.1555,2.1555,0,2.093,2.1018,2.1022,2.1087,2.1119,2.1103,2.1173,2.1203,2.1263,2.1285,2.126,2.1376,2.1404,2.15,2.1529,2.1552,2.157,2.154,2.1664,2.1676,2.1686,2.1724,2.174,2.1558,2.1558,2.1558,2.1557,0,2.1072,2.1133,2.1184,2.1243,2.1281,2.1349,2.1362,2.14,2.1397,2.1411,2.1492,2.1525,2.1582,2.1605,2.1603,2.1701,2.1686,2.1663,2.1618,2.1705,2.1741,2.1756,2.1563,2.1562,2.1561,2.156,0,0,2.1207,2.1267,2.1285,2.1311,2.136,2.1407,2.1472,2.1529,2.156,2.1602,2.1656,2.1735,2.1713,2.1745,2.1746,2.179,2.1878,2.1761,2.1762,2.178,2.1986,2.2002,2.2019,2.1868,2.1871,2.1873,2.1982,0,2.1316,2.1433,2.1438,2.1544,2.1599,2.1584,2.1641,2.1676,2.1691,2.1739,2.1755,2.181,2.1778,2.1797,2.184,2.1858,2.1919,2.185,2.1917,2.1919,2.1906,2.2038,2.2056,2.2157,2.1996,2.1998,2.2,0,2.146,2.1506,2.1617,2.1657,2.168,2.1732,2.1782,2.1829,2.1868,2.1876,2.1911,2.1905,2.197,2.1924,2.2014,2.1967,2.1994,2.2007,2.2011,2.2017,2.1964,2.2046,2.2189,2.2204,2.2022,2.2021,2.2019,0,2.1545,2.1635,2.1713,2.1735,2.1784,2.182,2.1842,2.1878,2.1911,2.1955,2.1976,2.2027,2.2055,2.2094,2.2101,2.2067,2.2191,2.2145,2.2197,2.2197,2.2223,2.2221,2.2371,2.2243,2.2243,2.2243,2.2242,0,2.1666,2.1734,2.1751,2.1799,2.1874,2.188,2.1954,2.1973,2.2005,2.2055,2.2044,2.2091,2.2099,2.2147,2.2153,2.2225,2.2238,2.2245,2.2245,2.2245,2.2244,2.2262,2.2255,2.2247,2.2246,2.2245,2.2244,0,2.1773,2.1788,2.1871,2.191,2.1922,2.1975,2.2008,2.2053,2.2066,2.2129,2.2145,2.2165,2.2221,2.2233,2.2299,2.2303,2.2388,2.2383,2.2375,2.2374,2.2425,2.242,2.2591,2.2613,2.2472,2.2473,2.2474,0,2.1849,2.1901,2.1945,2.1978,2.2002,2.2055,2.2089,2.2095,2.213,2.2178,2.2217,2.2272,2.2316,2.2406,2.2426,2.2476,2.2471,2.2527,2.2478,2.2476,2.247,2.2466,2.247,2.2536,2.2538,2.2539,2.254,0,2.1981,2.1985,2.2034,2.2086,2.2126,2.2166,2.2205,2.2232,2.2244,2.2283,2.2341,2.2375,2.2442,2.2496,2.2546,2.2567,2.2555,2.2556,2.257,2.257,2.2563,2.2566,2.24,2.2551,2.255,2.2549,2.2549,2.2548,2.2073,2.2118,2.2156,2.2211,2.224,2.2276,2.232,2.2339,2.2387,2.2443,2.2444,2.2506,2.2542,2.2608,2.2632,2.268,2.2662,2.2683,2.2688,2.2693,2.2697,2.2556,2.2689,2.2689,2.2688,2.2688,2.2688,0,2.2203,2.2227,2.2277,2.2331,2.2374,2.236,2.2401,2.2437,2.2492,2.2528,2.2571,2.2636,2.2688,2.2712,2.2763,2.2797,2.2793,2.281,2.2807,2.2811,2.2711,2.2693,2.2812,2.2812,2.2812,2.2812,2.2812,2.2812,2.2276,2.2351,2.2359,2.2448,2.2471,2.2532,2.2557,2.2589,2.2617,2.2691,2.2734,2.275,2.278,2.2833,2.2879,2.2885,2.2904,2.2923,2.2926,2.2831,2.2819,2.2807,2.2789,2.2928,2.2928,2.3023,2.3023,2.3024]}]]